COSMOS 2251 DEB

Satellite information

Favourite Embed

Satellite Type and Status

DEBRISIN ORBIT

Key statistics

Satellite COSMOS 2251 DEB at a glance.

Uptime

11769

Days in orbit

Revolutions

≈ 14.1

Per day

Orbit

LEO

Low Earth Orbit

Inclination

74.1

Latest

Satellite identification and parameters

Extended collection of information and parameters for COSMOS 2251 DEB.

Object identification

Identified? True

Debris? True

Object name: COSMOS 2251 DEB

International designator: 1993-036BP

Object number (NORAD): 33822

Object ID (CCSDS): 33822

Country: COMMONWEALTH OF INDEPENDENT STATES (CIS)

Current information (Y/N): Y

RCS size: SMALL

Orbital parameters

Period: 101.968 minutes

Inclination: 74.0743 deg

SMA: 7229.968 km

Apoapsis: 965.418 km

Periapsis: 738.247 km

RAAN: 9.9334 deg

Eccentricy: 0.01571044

Argument of periapsis: 80.2614 deg

Mean anomaly: 42.491 deg

Mean motion: 14.12206617 rev/day

Mean motion (dot): 0.00004958 rev/day2

B* drag term: 0.00241114 1/REarth

Two-line elements (TLE)

Creation date: Sept. 4, 2025, 4:29 a.m.

Reference frame: TEME

Reference center: EARTH

Epoch: Sept. 3, 2025, 7:46 p.m. UTC

TLE line 0: 0 COSMOS 2251 DEB

TLE line 1: 1 33822U 93036BP 25246.82375332 .00004958 00000-0 24111-2 0 9998

TLE line 2: 2 33822 74.0743 9.9334 0157104 80.2614 42.4910 14.12206617846437

Live tracking on map

Real-time ground track for satellite COSMOS 2251 DEB.

In-orbit conjunctions

A list of the most updated potential collisions computed for object COSMOS 2251 DEB.

Target Orbit TCA Probability of collision Miss distance Type
FENGYUN 1C DEB SSO 2024-11-13 03:17:44 0.000152736 745.0 (m) DEBRIS
DELTA 1 DEB SSO 2024-11-11 20:50:51 0.0004315324 398.0 (m) DEBRIS
COSMOS 1275 DEB LEO 2024-06-29 18:05:42 0.0002202278 87.0 (m) DEBRIS

Associated space launch

Military communications satellite. Destroyed in a collision with Iridium 33.

COSMOS 2251 DEB was lifted into orbit during the mission ‘Kosmos-3M | Strela-2M 51’, on board a Kosmos-3M space rocket.

The launch took place on June 16, 1993, 4:17 a.m. from 132/1 (132L).

For more information about the launch, click the button.

Launch to space Kosmos-3M | Strela-2M 51
Kosmos-3M | Strela-2M 51

Agency: N/A

Status: Launch Successful

Launch date: June 16, 1993, 4:17 a.m. UTC

Rocket: Kosmos-3M

Launch pad: 132/1 (132L)

Location: Plesetsk Cosmodrome, Russian Federation

...

Latest news about this satellite

There are no fresh news available about this satellite. Check back as we update our databases every day.


Newsletter sign-up

Weekly statistics, charts and insights to help you stay on top of the space industry.